Home > Weather > Barsinghausen > Past weeks

Flag for Germany Weather for the Past 2 Weeks in Barsinghausen, Lower Saxony, Germany

Now
46 °F

Scattered clouds.


Feels Like: 44 °F
Forecast: 39 / 59 °F
Wind: 5 mph from West

Location: Wunstorf Airport

Current Time: May 4, 2016 at 10:03:04 AM

Latest Report: May 4, 2016 at 9:20 AM


Visibility: N/A

Pressure: 30.39 "Hg

Humidity: 76%

Dew Point: 39 °F

Location of BarsinghausenLocation

Historic Weather in Barsinghausen — Graph

°F

Barsinghausen Temperature Yesterday

Maximum temperature yesterday: 55 °F (at 2:20 PM)
Minimum temperature yesterday: 45 °F (at 11:20 PM)
Average temperature yesterday: 51 °F

High & Low Weather Summary for the Past Weeks

 TemperatureHumidityPressure
High68 °F (May 2, 4:20 PM)100% (Apr 30, 5:20 AM)30.45 "Hg (Apr 30, 5:20 AM)
Low32 °F (Apr 21, 5:20 AM)26% (May 2, 5:20 PM)29.39 "Hg (Apr 26, 1:20 PM)
Average45 °F70%30.00 "Hg
* Reported Apr 19 8:20 AM — May 4 8:20 AM, Barsinghausen, Weather by CustomWeather, © 2016

Note: Actual official high and low records may vary slightly from our data, if they occured in-between our weather recording intervals... More about our weather records

Advertising

Barsinghausen Weather History for the Previous 24 Hours

Scroll right to see more
 ConditionsComfort  
Time TempWeatherWind HumidityBarometerVisibility
8:20 AM
Wed, May 4
45 °FScattered clouds.5 mph87%30.39 "HgN/A
7:20 AM39 °FPassing clouds.3 mph87%30.39 "Hg5 mi
6:20 AM37 °FPassing clouds.5 mph93%30.36 "HgN/A
5:20 AM34 °FFog.3 mph93%30.36 "HgN/A
4:20 AM39 °FChilly.3 mph87%30.33 "Hg4 mi
3:20 AM39 °FChilly.6 mph87%30.33 "Hg4 mi
2:20 AM41 °FQuite cool.6 mph87%30.33 "Hg4 mi
1:20 AM41 °FQuite cool.1 mph87%30.33 "Hg4 mi
12:20 AM43 °FQuite cool.5 mph81%30.33 "Hg4 mi
11:20 PM
Tue, May 3
45 °FQuite cool.6 mph76%30.30 "Hg4 mi
10:20 PM46 °FCool.8 mph71%30.27 "Hg4 mi
9:20 PM50 °FCool.9 mph62%30.24 "Hg4 mi
8:20 PM52 °FCool.8 mph58%30.21 "Hg4 mi
7:20 PM54 °FScattered clouds.12 mph54%30.18 "HgN/A
6:20 PM55 °FScattered clouds.15 mph55%30.18 "HgN/A
5:20 PM54 °FBroken clouds.14 mph58%30.18 "HgN/A
4:20 PM54 °FBroken clouds.7 mph54%30.15 "HgN/A
3:20 PM55 °FBroken clouds.13 mph51%30.15 "HgN/A
2:20 PM55 °FBroken clouds.8 mph63%30.12 "HgN/A
1:20 PM52 °FScattered showers. Broken clouds.9 mph77%30.12 "HgN/A
12:20 PM50 °FBroken clouds.8 mph88%30.12 "HgN/A
11:20 AM48 °FRain. Broken clouds.12 mph87%30.12 "Hg5 mi
11:01 AM48 °FLight rain. Partly sunny.14 mph87%30.09 "Hg5 mi
10:20 AM50 °FLight rain. Partly sunny.13 mph82%30.09 "HgN/A
Weather by CustomWeather, © 2016

See weather overviewHow to use our weather pages